Miscellaneous Local Product
Issued by NWS North Platte, NE

Home | Current Version | Previous Version | Graphics & Text | Print | Product List | Glossary On
Versions: 1 2 3 4 5 6 7 8 9 10 11 12 13 14 15 16 17 18 19 20 21 22 23 24 25 26 27 28 29 30 31 32 33 34 35 36 37 38 39 40 41 42 43 44 45 46 47 48 49 50
000
AXUS43 KLBF 300410
MISLBF


WESTERN AND NORTH CENTRAL NEBRASKA HOURLY WEATHER ROUNDUP
NATIONAL WEATHER SERVICE NORTH PLATTE NE
1100 PM CDT MON MAY 29 2017

NOTE: "FAIR" INDICATES FEW OR NO CLOUDS BELOW 12,000 FEET WITH NO
SIGNIFICANT WEATHER AND/OR OBSTRUCTIONS TO VISIBILITY.

NOTE: STATIONS NOT REPORTING VARIABLES SUCH AS SKY/WEATHER OR
PRESSURE ARE PROVIDED BY RAWS AND APRS NETWORKS AND ARE NOT UNDER
NATIONAL WEATHER SERVICE QUALITY CONTROL.

...OBSERVATIONS IN AND NEAR THE EASTERN PANHANDLE OF NEBRASKA...

CITY           SKY/WX    TMP DP  RH WIND       PRES   REMARKS
PINE RIDGE     CLEAR     48  41  76 E3        30.14R
GORDON         FAIR      46  38  74 W3        30.14R
CHADRON        CLEAR     53  41  63 E3        30.14R
ALLIANCE       CLEAR     49  36  61 N5        30.14R
SIDNEY         CLEAR     45  38  76 N3        30.19R
CRESCENT LAKE    N/A     55  33  43 W5          N/A
$$

...OBSERVATIONS IN NORTHERN NEBRASKA AND FAR SOUTHERN SOUTH DAKOTA...

CITY           SKY/WX    TMP DP  RH WIND       PRES   REMARKS
WINNER         FAIR      55  37  50 NW6       30.06R
VALENTINE      CLEAR     51  38  60 W8        30.09R
THEDFORD       CLEAR     54  38  55 W3        30.11R
AINSWORTH      CLEAR     54  38  55 W6        30.09R
O`NEILL        CLEAR     56  37  49 W6        30.06R
ORD            CLEAR     48  39  71 SW7       30.07R
BROKEN BOW     CLEAR     54  39  57 CALM      30.09R
VALENTINE NWR    N/A     51  40  65 CALM        N/A
HALSEY           N/A     56  35  45 CALM        N/A
BUTTE            N/A     55  40  58 CALM        N/A
CHAMBERS         N/A     51  38  61 CALM        N/A
EWING            N/A     51  43  73 CALM        N/A
$$

...OBSERVATIONS IN SOUTHWEST NEBRASKA AND FAR NORTHEAST COLORADO...

CITY           SKY/WX    TMP DP  RH WIND       PRES   REMARKS
WRAY           FAIR      55  46  71 W7        30.17R
IMPERIAL       PTCLDY    58  40  51 NW5       30.14R
OGALLALA       CLEAR     54  38  54 CALM      30.14R
NORTH PLATTE   CLEAR     48  41  76 CALM      30.12R
MCCOOK         CLOUDY    59  42  53 CALM      30.11R
LEXINGTON      CLEAR     56  41  58 CALM      30.10R
STAPLETON        N/A     53  37  54 CALM        N/A
GOTHENBURG       N/A     61  32  34 CALM        N/A
CALLAWAY         N/A     63  36  36 NE3         N/A
$$

...OBSERVATIONS IN CENTRAL LINCOLN COUNTY AREA...

CITY           SKY/WX    TMP DP  RH WIND       PRES   REMARKS
N.P. AIRPORT   CLEAR     48  41  76 CALM      30.12R
N.P. DOWNTOWN    N/A     57  43  59 CALM        N/A
N.P. SOUTHEAST   N/A     55  41  60 CALM        N/A
N.P. HILLCREST   N/A     58  37  46 CALM        N/A
$$

...SOME OBSERVATIONS FROM AROUND THE REGION...

CITY           SKY/WX    TMP DP  RH WIND       PRES   REMARKS
DENVER         PTCLDY    51  44  77 S12       30.24R
LIMON          CLEAR     45  45 100 NW3       30.25R
ASPEN          CLOUDY    47  33  58 SW8       30.27R
LARAMIE        CLOUDY    46  38  73 S9        30.29R
CASPER         CLEAR     45  40  82 N6        30.23R
CHEYENNE       CLEAR     53  42  66 CALM      30.27R
SCOTTSBLUFF    CLEAR     53  38  56 N3        30.17R
GRAND ISLAND   CLEAR     58  40  51 CALM      30.08R
OMAHA          CLEAR     61  43  51 CALM      30.03R
SIOUX FALLS    CLEAR     52  45  77 W3        30.00R
PIERRE         CLEAR     47  35  63 N6        30.03R
RAPID CITY     CLEAR     45  29  53 NW10      30.12R
BISMARCK       CLEAR     54  36  50 N5        30.01R
KANSAS CITY    CLEAR     63  44  50 N8        30.03R
HILL CITY      PTCLDY    58  51  78 CALM      30.10R
WICHITA        CLEAR     71  50  47 N3        30.06R
DODGE CITY     CLOUDY    65  49  56 E5        30.12R
OKLAHOMA CITY  PTCLDY    67  53  61 S6        30.06R
DALLAS         CLEAR     77  53  43 E5        30.04R
AMARILLO       CLOUDY    61  50  67 NW10      30.19R
$$




USA.gov is the U.S. government's official web portal to all federal, state and local government web resources and services.